{"data":{"norad_id":62226,"epoch":"2026-09-21T03:42:25.662816Z","epoch_age_seconds":121670,"freshness":"FRESH","line1":"1 62226U 24231J   26264.15446369  .00148654  00000+0  12093-2 0  9992","line2":"2 62226  53.1565 217.5319 0000766  67.7663 292.3436 15.69723830104117","mean_motion":15.6972383,"eccentricity":7.66e-5,"inclination_deg":53.1565,"raan_deg":217.5319,"arg_perigee_deg":67.7663,"mean_anomaly_deg":292.3436,"bstar":0.0012093,"rev_number":10411,"period_min":91.735881973583,"perigee_km":359.17105721242,"apogee_km":360.20329187597,"semimajor_km":6737.8241745442,"source":"CELESTRAK","updated_at":"2026-09-22T09:00:49.562930Z"}}